Theta_e
344 340 337 335 333 332 331 332 331 328 325 322 322 322 321 318 317 317 315 315 315 314
339 336 336 335 332 332 333 328 325 323 321 321 322 320 319 316 315 314 315 314 314 313
336 336 335 332 331 331 328 326 323 321 320 320 319 317 316 315 315 314 314 313 311 312
337 332 331 329 329 327 324 322 321 320 319 318 317 316 315 315 316 314 313 315 312 313
332 332 330 329 326 324 322 321 321 319 318 318 318 316 315 315 316 314 314 315 311 311
331 329 327 324 322 321 319 318 318 317 316 316 315 315 315 315 316 317 315 312 309 307
327 326 324 322 320 319 318 316 314 311 310 309 310 312 316 316 317 316 311 308 306 303
325 323 321 318 317 316 316 313 309 307 305 304 305 306 311 315 315 313 310 304 302 299
321 319 317 316 315 314 312 310 307 304 302 299 301 301 307 312 309 309 306 302 299 296
316 315 314 314 313 311 307 305 301 299 297 295 296 298 303 308 307 304 302 299 296 293
314 314 314 312 310 308 307 304 301 298 295 294 296 297 299 305 304 299 296 293 292 289
314 312 312 310 309 308 305 303 300 297 295 293 293 297 298 305 304 292 290 291 290 290
313 311 310 309 307 306 303 300 299 297 296 296 292 295 297 297 300 292 293 291 291 295
311 310 309 307 306 304 302 299 298 296 295 294 293 293 294 295 297 297 294 291 290 290
Wind_Speed
17 11 11 13 11 9 10 9 9 10 8 7 7 6 7 5 5 6 5 7 6 3
13 15 13 14 13 10 12 10 11 10 8 6 7 7 8 5 5 5 5 6 6 4
17 15 11 13 16 15 14 14 11 9 9 8 7 7 7 5 6 7 4 4 7 5
17 19 16 14 14 14 15 13 12 10 10 8 7 7 6 6 7 8 6 7 7 7
19 21 17 14 15 16 14 12 12 11 9 7 6 6 5 6 7 8 7 8 8 8
21 22 18 17 16 13 14 13 13 11 8 8 7 6 7 7 7 10 10 10 9 8
22 21 19 17 15 14 13 13 12 12 12 10 9 9 7 8 12 12 11 11 11 9
21 20 19 17 15 15 14 15 14 13 12 11 10 6 7 10 13 11 10 10 9 9
21 20 19 17 18 15 16 15 14 14 13 11 7 9 13 13 12 10 7 6 6 7
20 20 17 19 19 16 16 15 14 12 11 10 6 12 13 13 8 7 9 10 7 7
20 18 18 21 18 17 15 14 13 11 10 10 8 11 11 13 9 10 11 8 6 5
17 18 20 19 18 16 15 13 14 11 11 12 10 12 11 8 9 9 9 5 5 6
16 18 18 18 18 15 14 13 12 13 12 15 12 17 14 9 8 8 5 2 3 6
16 17 17 17 16 14 14 15 14 14 11 12 10 10 15 13 8 6 5 3 3 4
Wind_Direction
126 127 125 125 124 118 113 113 103 104 100 102 107 91 85 83 87 88 79 67 44 58
112 116 128 124 112 112 115 115 111 106 109 108 97 97 94 94 94 93 80 71 62 60
123 116 118 117 124 125 120 119 114 117 114 98 93 98 101 102 105 99 95 85 66 49
129 122 123 118 123 126 114 120 121 123 103 100 103 120 127 137 119 105 98 76 66 51
128 117 118 123 126 120 131 126 123 113 109 115 114 122 124 99 109 109 94 88 70 53
122 119 127 128 124 129 125 116 113 113 115 89 68 80 90 93 92 80 80 71 67 56
120 126 126 125 125 120 113 108 92 87 85 78 67 55 66 80 83 87 81 75 71 64
124 125 123 115 118 103 99 94 92 89 80 71 59 42 57 81 83 81 88 84 79 57
120 115 114 120 105 102 95 91 87 81 79 74 66 31 64 84 85 80 86 108 95 56
115 114 123 112 103 102 99 95 88 84 85 73 58 50 67 84 84 90 78 68 57 47
115 123 118 102 107 108 102 101 97 87 78 77 52 56 77 94 95 83 77 73 77 73
125 122 109 114 113 107 108 102 96 91 79 72 45 47 81 95 99 89 85 77 77 69
119 113 115 111 107 109 103 103 96 86 78 73 63 53 61 63 102 99 96 76 56 73
111 114 112 111 108 112 108 94 93 89 77 72 69 55 60 50 82 108 97 70 17 344